Theta_e
308 308 308 308 308 309 309 309 309 309 309 310 310 311 311 312 312 313 314 314 313 312 312 312 312 314 314 314 314 315 307 309 311 312 315 315 314 315 315 315 315 316 316 317 322
308 308 309 309 309 309 309 309 309 309 309 310 310 311 312 312 313 314 315 314 314 312 312 313 314 316 316 316 315 312 307 311 311 311 313 314 315 316 315 314 313 315 316 317 321
309 309 309 309 309 309 309 309 309 309 309 310 310 311 312 312 317 316 312 313 313 312 312 314 315 315 316 316 315 311 310 311 314 315 315 315 315 315 313 312 314 315 316 318 320
310 310 310 310 310 310 310 310 309 309 309 309 310 311 311 313 315 313 311 311 311 312 313 314 316 317 314 315 316 313 313 312 314 315 315 314 315 315 314 315 316 315 316 317 317
310 310 310 310 310 310 310 310 310 309 309 309 309 310 311 313 315 317 315 311 311 312 314 316 316 316 314 315 315 313 314 315 315 315 315 316 315 314 315 316 316 315 314 315 316
310 310 310 310 310 310 309 309 310 310 309 309 309 309 311 312 314 317 317 313 311 313 314 315 316 316 315 314 313 315 315 315 315 315 315 314 314 315 315 315 315 315 315 314 314
308 308 309 309 309 309 309 309 309 310 310 309 309 309 310 310 313 316 317 316 312 311 311 312 315 316 315 314 315 314 314 311 313 314 314 315 312 311 315 315 314 314 314 314 313
317 312 308 308 308 308 308 309 309 310 309 309 309 309 310 311 311 316 316 316 316 315 313 313 314 316 316 315 313 313 311 314 312 312 314 314 313 313 314 313 313 313 313 313 313
323 323 319 313 309 308 309 309 310 310 310 309 309 309 310 311 312 314 314 316 316 315 314 315 315 315 314 310 311 310 312 312 313 311 311 311 313 312 312 312 313 313 313 313 313
322 322 323 322 318 314 310 307 308 308 308 308 308 311 311 312 313 313 315 316 315 314 314 314 314 310 307 310 312 312 313 312 313 313 310 311 310 309 312 310 311 312 312 312 313
321 317 322 323 323 321 316 312 308 309 307 309 310 308 312 312 314 316 316 315 315 314 312 312 310 311 312 309 311 311 312 313 312 312 312 311 310 311 311 310 309 311 312 312 313
316 318 319 323 322 322 322 314 310 314 313 311 308 311 313 313 315 316 316 315 314 312 310 310 311 311 311 310 311 312 313 312 311 310 310 310 310 309 309 309 311 313 313 313 313
317 317 317 318 322 321 322 321 314 314 312 314 314 311 311 314 314 315 315 314 312 311 310 312 313 311 311 311 312 311 311 311 313 312 309 310 311 309 309 310 311 312 314 314 314
319 317 318 317 319 321 321 322 320 313 313 314 313 315 313 313 313 314 315 315 311 312 310 311 311 312 311 312 311 312 310 311 312 314 314 311 315 311 310 309 307 311 312 315 314
317 319 319 319 318 318 320 320 319 315 326 315 313 314 314 313 312 313 315 314 311 311 312 312 312 312 313 312 311 313 311 311 312 312 311 311 311 313 310 310 310 311 314 315 315
310 315 318 319 319 318 319 318 316 319 324 315 314 313 312 313 311 310 313 312 312 311 312 310 311 311 312 311 311 309 311 310 309 310 313 312 313 313 311 313 311 312 315 316 316
307 309 313 317 318 319 318 317 318 316 317 316 315 312 314 312 310 310 310 311 312 313 313 311 311 310 311 312 310 312 313 315 313 312 316 310 311 315 312 311 310 311 317 316 314
306 307 308 312 317 318 318 316 316 316 317 314 314 313 315 313 311 309 309 312 309 311 310 312 312 310 308 313 313 311 312 314 313 313 312 311 314 314 309 311 312 314 315 313 313
305 305 306 307 310 317 318 316 318 314 314 316 316 317 315 314 312 310 308 309 310 308 313 312 313 310 309 310 312 311 313 312 314 298 308 312 311 311 309 308 309 312 310 309 312
304 304 304 306 307 309 316 317 314 313 314 316 320 317 317 316 314 310 309 309 310 309 310 312 313 310 310 311 310 310 309 313 310 311 310 313 313 315 314 311 309 308 309 313 313
302 302 303 304 306 308 312 314 314 313 313 316 318 318 316 317 316 312 314 312 309 309 311 311 312 311 310 310 311 311 311 311 311 310 312 312 317 309 312 311 311 309 314 314 312
301 302 303 305 308 309 309 311 312 314 315 314 316 316 315 314 316 316 314 316 312 310 311 310 312 309 311 309 308 310 312 311 313 312 311 312 318 309 311 310 310 312 312 312 311
300 300 301 308 307 307 307 309 310 314 314 315 316 316 315 316 318 315 313 311 311 311 312 313 315 315 315 313 308 310 311 312 312 309 316 314 318 305 308 309 311 309 311 312 313
300 301 301 302 308 306 307 307 309 311 312 315 316 316 317 318 316 318 314 314 312 311 313 314 314 314 320 317 312 311 310 310 313 315 315 316 317 314 310 309 309 311 313 312 314
299 301 301 300 302 308 308 307 308 308 311 312 314 316 316 318 318 319 318 317 311 312 313 315 315 314 314 313 311 311 311 312 313 314 317 317 316 316 314 307 310 315 315 311 311
298 299 300 301 304 301 307 309 308 308 310 312 313 312 314 317 317 317 317 317 318 310 313 314 313 313 316 314 313 314 311 310 312 314 314 315 316 315 314 315 312 315 316 313 312
299 298 299 300 299 302 304 303 309 308 309 309 310 311 312 313 314 314 315 315 315 315 312 314 314 316 320 314 314 315 314 315 311 312 313 315 314 314 312 308 312 314 313 312 313
Wind_Speed
10 9 8 7 6 5 4 3 3 2 2 2 3 2 2 3 3 3 3 4 4 5 5 5 4 3 3 5 4 3 5 3 6 7 4 8 4 6 7 12 10 10 6 7 25
10 9 8 7 6 5 4 4 3 3 3 3 3 3 3 3 3 3 4 5 5 6 6 5 6 4 2 3 2 4 4 8 5 4 4 8 5 10 7 8 6 10 11 14 26
10 9 9 8 7 6 5 4 4 4 3 3 3 3 3 3 2 2 2 4 6 7 7 6 5 4 3 2 2 3 4 4 3 3 5 7 4 8 8 4 12 19 19 23 28
11 10 10 9 8 7 6 5 5 4 4 4 3 4 3 1 3 4 4 3 6 8 8 7 5 2 3 2 2 3 2 3 4 3 5 5 4 5 14 8 9 13 19 25 28
13 12 11 10 9 8 7 6 6 5 5 5 4 4 3 3 4 6 3 4 7 10 10 7 5 3 4 3 1 2 2 3 3 5 5 5 8 7 13 15 12 14 21 25 27
14 15 14 12 11 10 9 8 7 7 6 6 6 5 4 4 6 7 6 6 8 10 8 6 4 4 4 2 3 1 1 2 4 5 5 5 4 4 10 16 15 17 23 25 26
12 14 15 15 14 13 12 10 9 8 8 7 7 7 7 9 8 9 9 8 9 8 7 6 5 3 4 3 2 2 3 6 7 6 5 7 6 10 19 16 18 21 23 24 25
5 7 10 13 14 14 14 12 11 10 9 8 8 7 6 9 13 11 10 9 8 8 7 5 4 4 3 6 4 3 4 2 3 7 2 7 9 6 17 20 24 25 25 27 28
4 5 5 7 10 13 14 14 13 11 11 9 8 6 6 8 15 14 15 11 10 8 6 5 6 3 4 5 4 5 3 5 7 10 3 5 7 3 5 20 27 29 29 30 29
7 8 7 6 7 10 11 11 12 10 11 9 11 4 12 6 10 14 14 11 8 9 6 4 2 3 3 4 5 6 4 4 5 3 3 4 12 10 10 15 27 27 31 33 34
13 9 11 8 8 8 7 7 8 5 15 10 6 4 2 9 10 12 16 15 10 7 5 3 3 7 13 9 4 5 4 6 4 3 4 8 10 14 17 19 23 29 33 37 39
19 15 13 13 9 10 7 5 4 2 7 15 23 15 9 12 9 14 19 12 8 5 7 4 7 13 3 5 4 1 3 6 6 4 6 9 13 11 8 15 31 37 40 41 41
21 16 16 15 14 13 12 8 7 4 5 8 21 23 23 18 10 22 26 11 5 6 9 8 5 6 8 4 5 6 7 5 8 4 4 4 8 9 10 26 29 37 41 43 46
21 26 21 19 15 17 17 11 9 2 3 6 8 13 24 16 8 18 29 11 5 12 7 7 4 6 5 6 9 8 8 7 4 1 5 2 9 6 6 12 8 33 40 48 49
11 12 20 25 19 15 8 9 11 6 5 3 5 4 14 16 12 15 32 14 8 8 7 8 8 6 6 7 9 6 5 6 2 3 2 3 4 5 2 8 13 23 40 43 42
13 16 12 22 28 24 16 8 13 5 12 3 5 5 7 4 3 7 14 6 5 5 3 4 2 7 7 3 7 6 5 5 4 2 5 12 11 6 6 13 6 18 34 36 34
12 14 16 14 15 30 27 11 4 5 4 3 4 5 2 5 3 5 7 11 10 6 12 3 6 4 5 5 3 3 6 3 4 1 8 3 5 15 7 6 10 13 27 24 19
14 16 17 20 18 13 27 5 6 7 7 4 1 2 5 5 3 4 6 9 9 3 3 10 7 12 8 13 8 9 9 6 8 4 5 1 8 6 10 17 22 26 30 27 15
16 18 23 20 18 21 20 7 8 7 6 10 5 1 3 3 5 4 6 5 8 11 11 7 7 2 2 4 11 6 9 4 2 2 2 5 7 8 9 9 15 25 18 15 14
19 20 30 20 15 20 7 10 5 5 5 5 14 8 7 6 5 6 8 5 6 14 6 4 3 1 1 5 4 6 8 3 1 3 5 6 7 9 6 9 11 12 13 20 17
11 9 7 14 18 8 10 6 5 11 4 4 11 11 7 8 10 5 4 4 7 6 23 4 4 1 3 7 11 3 4 2 4 5 5 3 8 7 9 11 9 8 14 14 14
9 3 4 16 10 6 13 5 7 1 13 4 4 7 11 10 10 13 14 15 13 11 9 8 3 4 8 2 2 1 6 7 5 5 4 2 18 5 3 4 8 9 7 6 2
8 14 14 20 8 11 4 6 14 7 8 5 5 6 5 10 8 12 8 7 13 10 9 8 3 1 3 2 3 5 5 15 3 3 16 6 12 3 2 4 5 8 4 1 3
5 3 11 19 24 10 14 14 11 17 16 12 7 11 2 9 8 8 9 5 18 14 10 16 6 8 10 3 5 7 9 11 17 7 10 19 29 14 5 6 5 8 7 9 10
16 6 8 3 15 18 8 6 18 11 15 25 7 17 15 10 12 8 7 2 1 4 7 10 7 9 14 7 1 3 8 18 18 30 12 33 19 31 16 9 19 24 27 20 17
11 8 5 17 8 11 18 20 20 16 10 12 15 17 17 11 15 10 16 10 8 2 7 10 5 7 12 18 13 13 9 16 25 28 24 31 25 14 7 15 9 20 22 25 23
28 23 14 10 14 9 8 23 16 11 9 28 17 16 12 23 31 28 20 10 5 11 12 9 6 6 16 6 8 8 29 21 11 18 21 22 36 30 18 9 23 33 26 25 29
Wind_Direction
183 181 182 184 192 201 209 209 221 230 234 252 274 283 290 293 282 233 205 193 203 181 177 165 153 130 118 88 88 115 68 164 190 158 231 168 144 152 171 154 180 197 206 204 185
190 190 188 192 196 203 211 227 229 236 250 263 279 295 302 302 285 221 218 223 210 193 167 162 149 142 71 76 58 82 101 206 196 196 215 181 174 166 164 164 204 197 204 183 187
203 205 202 201 204 208 219 222 241 253 263 269 277 288 302 315 183 203 197 205 188 182 165 158 147 126 87 65 46 124 162 197 205 186 204 180 208 184 163 230 207 199 190 183 189
221 218 220 220 222 219 226 237 241 253 265 275 279 284 285 263 179 144 119 146 168 166 163 149 151 116 88 95 75 99 160 182 188 207 171 183 180 207 204 218 231 219 203 194 196
246 242 236 236 237 238 238 245 257 266 270 275 276 276 272 236 210 173 151 122 151 151 151 150 143 131 138 146 96 120 185 194 214 213 227 209 225 223 235 233 236 210 202 204 207
244 251 250 247 248 252 249 249 256 268 275 279 281 275 260 247 207 199 192 172 162 160 157 155 137 110 113 118 129 151 273 257 247 233 237 212 242 212 239 230 221 209 208 209 214
239 241 249 250 252 252 257 260 259 260 270 276 277 279 263 247 214 205 201 197 194 191 190 174 156 153 147 104 107 84 334 332 244 216 229 209 283 233 234 223 215 209 211 215 219
245 245 244 252 252 253 254 255 263 266 264 265 271 278 260 240 217 198 190 189 196 202 202 192 179 151 131 125 44 65 45 345 295 154 224 159 262 265 230 215 222 220 220 223 226
253 259 258 255 258 256 256 256 254 260 264 262 264 253 256 238 224 213 212 218 215 207 193 182 169 129 124 90 20 6 233 210 312 202 140 175 269 275 224 216 230 227 227 231 233
249 263 264 260 267 267 256 254 256 248 248 256 248 263 235 225 215 209 205 197 188 183 160 168 120 76 46 105 221 202 220 235 230 224 178 215 264 267 260 227 236 238 236 236 237
249 258 260 262 260 267 265 252 254 254 223 208 206 212 271 204 182 190 190 178 168 163 154 125 115 203 212 200 164 152 189 232 240 237 180 229 241 255 247 232 240 241 240 239 242
253 252 256 254 250 261 258 224 223 251 297 244 240 235 235 194 188 184 179 172 169 164 121 55 229 225 145 175 197 204 230 252 285 239 190 262 258 247 228 234 235 243 245 244 245
234 241 249 257 256 250 248 242 253 284 269 256 233 231 216 208 215 196 184 180 150 140 188 177 210 166 158 160 170 228 214 232 232 325 238 299 265 239 246 239 247 249 253 256 253
232 239 239 250 249 247 244 238 242 234 290 249 217 228 213 203 235 216 193 177 183 191 169 236 237 147 170 194 163 243 207 209 239 60 253 45 287 242 237 250 228 249 248 253 252
237 234 229 234 229 232 227 217 189 153 266 195 165 195 180 177 144 189 191 204 177 176 143 228 179 175 187 195 173 225 141 176 194 200 349 207 271 251 227 261 255 252 253 256 256
252 242 236 227 232 233 227 225 161 161 226 181 131 168 135 189 129 121 179 182 151 140 266 229 197 175 197 132 163 138 85 54 55 88 261 211 210 214 199 223 246 251 260 263 262
254 252 241 221 224 226 225 212 200 225 347 191 189 169 168 151 145 156 168 184 175 158 222 137 219 193 159 101 48 139 102 311 324 352 249 6 223 252 284 238 220 247 267 272 271
259 257 245 234 223 239 225 174 198 203 205 109 104 85 181 150 181 143 142 192 241 150 130 188 263 169 190 197 168 196 164 167 213 212 279 226 239 253 231 256 246 254 264 273 273
277 263 261 237 238 211 212 222 215 171 185 154 108 132 219 203 154 143 202 229 213 184 192 172 258 217 196 145 162 197 210 177 51 94 350 234 280 282 259 277 263 251 260 271 274
273 284 262 245 233 239 268 231 242 226 169 175 187 171 186 178 174 180 178 207 212 191 213 222 276 196 191 97 29 161 160 85 2 213 257 267 271 232 257 249 256 262 252 268 267
293 290 271 242 212 196 233 219 235 237 248 193 205 179 199 172 179 205 218 276 214 198 197 163 150 304 128 215 166 137 186 141 139 163 193 304 262 213 219 217 229 261 262 271 268
272 253 229 199 181 206 231 189 198 241 239 269 262 188 192 173 186 207 214 212 194 136 178 201 165 197 203 260 266 56 204 164 162 209 238 168 266 180 207 248 201 249 296 288 278
235 250 251 206 215 220 240 223 220 193 204 192 251 231 190 189 207 204 223 212 182 164 171 159 178 274 320 18 345 214 207 205 162 77 225 164 265 32 336 272 249 259 280 332 318
234 267 227 232 234 222 223 236 231 214 229 223 207 234 238 229 224 190 212 217 203 200 190 137 181 206 224 194 144 193 199 204 204 220 215 230 250 250 206 240 252 250 261 258 272
210 229 230 215 240 235 222 220 226 232 211 205 229 225 213 243 237 229 200 154 68 194 137 153 225 219 249 284 199 231 215 201 206 226 206 251 243 256 244 223 234 265 283 261 247
203 204 225 251 276 232 243 228 229 227 189 213 225 231 228 240 225 234 226 206 193 175 163 176 221 199 255 248 227 238 233 223 221 230 229 252 257 241 177 239 236 253 260 263 259
219 227 225 248 239 251 238 239 241 213 235 230 226 230 228 227 235 241 238 213 204 199 190 184 186 175 253 182 214 239 234 228 222 230 219 238 246 262 267 230 250 263 269 279 277